Weather History for Hurlburt Field, FL

Change the Weather History Date:

Sunday, November 24, 2013

  Actual Average Record
Temperature  
Mean Temperature 50 °F -  
Max Temperature 57 °F 66 °F 78 °F (2001)
Min Temperature 43 °F 47 °F 35 °F (2002)
Degree Days  
Heating Degree Days 15    
Moisture  
Dew Point 27 °F    
Average Humidity 42    
Maximum Humidity 54    
Minimum Humidity 28    
Precipitation  
Precipitation 0.00 in - - ()
Sea Level Pressure  
Sea Level Pressure 30.29 in    
Wind  
Wind Speed 14 mph (NE)    
Max Wind Speed 20 mph    
Max Gust Speed 28 mph    
Visibility 10 miles    
Events      
Averages and records for this station are not official NWS values.
T = Trace of Precipitation, MM = Missing Value Source: NWS Daily Summary

Daily Weather History Graph

Daily Weather History Graph

Search for Another Location

Airport:

Trip Planner

Search our weather history database for the weather conditions in past years. The results will help you decide how hot, cold, wet, or windy it might be!

Date:

Astronomy

Nov. 24, 2013 Rise Set
Actual Time 6:20 AM CST 4:46 PM CST
Civil Twilight 5:54 AM CST 5:12 PM CST
Nautical Twilight 5:25 AM CST 5:41 PM CST
Astronomical Twilight 4:56 AM CST 6:10 PM CST
Moon 10:58 PM CST (11/24) 11:19 AM CST (11/24)
Length of Visible Light 11h 17m
Length of Day
10h 26m
Waning Gibbous, 60% of the Moon is Illuminated
Nov 24
Waning Gibbous
Nov 25
Last Quarter
Dec 2
New
Dec 9
First Quarter
Dec 17
Full

Hourly Weather History & Observations

Time (CST) Temp. Windchill Dew Point Humidity Pressure Visibility Wind Dir Wind Speed Gust Speed Precip Events Conditions
12:58 AM 52.5 °F - 34.9 °F 51% 30.24 in 10.0 mi NNE 15.0 mph - N/A   Overcast
1:58 AM 51.4 °F - 33.3 °F 50% 30.24 in 10.0 mi North 18.4 mph 26.5 mph N/A   Overcast
2:58 AM 50.2 °F - 32.0 °F 50% 30.25 in 10.0 mi NNE 16.1 mph - N/A   Overcast
3:58 AM 48.9 °F - 30.2 °F 48% 30.26 in 10.0 mi NNE 15.0 mph 25.3 mph N/A   Overcast
4:58 AM 46.2 °F 39.5 °F 29.8 °F 53% 30.27 in 10.0 mi North 16.1 mph - N/A   Clear
5:58 AM 44.8 °F 37.7 °F 28.9 °F 54% 30.29 in 10.0 mi NNE 16.1 mph 25.3 mph N/A   Clear
6:58 AM 43.7 °F 36.0 °F 28.2 °F 54% 30.30 in 10.0 mi North 17.3 mph 25.3 mph N/A   Clear
7:58 AM 44.8 °F 36.9 °F 25.7 °F 47% 30.32 in 10.0 mi NNE 19.6 mph 25.3 mph N/A   Clear
8:58 AM 48.2 °F - 22.8 °F 37% 30.32 in 10.0 mi NNE 19.6 mph 27.6 mph N/A   Clear
9:58 AM 49.3 °F - 22.1 °F 34% 30.33 in 10.0 mi NNE 19.6 mph 26.5 mph N/A   Clear
10:58 AM 52.5 °F - 22.6 °F 31% 30.32 in 10.0 mi NE 12.7 mph 24.2 mph N/A   Clear
11:58 AM 55.4 °F - 23.4 °F 29% 30.28 in 10.0 mi NE 13.8 mph 18.4 mph N/A   Clear
12:58 PM 56.5 °F - 23.9 °F 28% 30.26 in 10.0 mi NE 10.4 mph 20.7 mph N/A   Clear
1:31 PM 57.2 °F - 24.8 °F 29% 30.25 in 10.0 mi ENE 13.8 mph 21.9 mph N/A   Clear
1:58 PM 56.8 °F - 24.4 °F 29% 30.26 in 10.0 mi ENE 13.8 mph 18.4 mph N/A   Clear
2:58 PM 57.0 °F - 26.6 °F 31% 30.26 in 10.0 mi NE 11.5 mph - N/A   Clear
3:58 PM 54.9 °F - 27.0 °F 34% 30.28 in 10.0 mi NNE 9.2 mph - N/A   Clear
4:58 PM 51.3 °F - 28.9 °F 42% 30.29 in 10.0 mi NE 6.9 mph - N/A   Clear
5:58 PM 48.6 °F - 30.4 °F 50% 30.31 in 10.0 mi NNE 8.1 mph - N/A   Partly Cloudy
6:58 PM 48.2 °F - 28.6 °F 47% 30.33 in 10.0 mi NNE 6.9 mph - N/A   Partly Cloudy
7:58 PM 46.9 °F - 28.4 °F 49% 30.33 in 10.0 mi NE 8.1 mph - N/A   Partly Cloudy
8:58 PM 46.2 °F 42.2 °F 28.0 °F 49% 30.33 in 10.0 mi NE 8.1 mph - N/A   Clear
9:58 PM 46.2 °F 41.7 °F 27.1 °F 47% 30.33 in 10.0 mi ENE 9.2 mph - N/A   Clear
10:58 PM 47.5 °F - 25.9 °F 43% 30.32 in 10.0 mi ENE 12.7 mph - N/A   Clear
11:58 PM 48.9 °F - 28.9 °F 46% 30.31 in 10.0 mi East 10.4 mph - N/A   Partly Cloudy